Location: Bailleul
(50.3375°N, 2.8513°E)
Time: 04:44:11
(UTC+00:00)

Cosmos 1980 - Pass Details

Date: 30 October 2021
Orbit: 839 x 847 km, 71.0° (Epoch: 01 December)

Event Time Altitude Azimuth Distance (km) Brightness Sun altitude
Exits shadow 01:59:24 14° 20° (NNE) 2,219 6.3 -42.9°
Maximum altitude 01:59:59 14° 26° (NNE) 2,207 6.3 -42.8°
Drops below altitude 10° 02:02:49 10° 57° (ENE) 2,471 6.7 -42.4°
Sets 02:06:38 0° 82° (E) 3,406 7.5 -41.9°
